Powrót do katalogu

FENGYUN 1C DEB

AktywnyPO
NORAD 31241·DEBRIS·🇨🇳 China

Wystrzelony May 10, 1999 z Taiyuan Satellite Launch Center

Loading…

Następne Przeloty (najbliższe 24 godziny)

TLE

ŚwieżeSource: Space-Track

Epoka: Sep 14, 2026, 10:09 UTC

1 31241U 99025BLX 26257.42341543  .00000823  00000-0  27335-3 0  9990
2 31241  99.2659  70.7931 0066714  95.6257 265.2541 14.39480687 16347

Śledź FENGYUN 1C DEB w czasie rzeczywistym z AllMySat

Download on the App Store